Location: Płaska
(53.8946°N, 23.2919°E)
Time: 02:12:03
(UTC+02:00)

ISS - Visible Passes

Search period start: 23 September 2018 00:00
Search period end: 03 October 2018 00:00
Orbit: 403 x 408 km, 51.6° (Epoch: 23 September)

Date Brightness Start Highest point End Pass type
(mag) Time Alt. Az. Time Alt. Az. Time Alt. Az.
23 Sep -1.7 19:38:10 10° S 19:39:38 13° SSE 19:39:38 13° SSE visible
24 Sep -2.3 20:21:02 10° SW 20:22:54 24° SSW 20:22:54 24° SSW visible
25 Sep -2.4 19:29:36 10° SSW 19:32:14 22° SSE 19:33:18 19° ESE visible
25 Sep -1.3 21:05:06 10° WSW 21:05:59 17° WSW 21:05:59 17° WSW visible
26 Sep -3.2 20:13:20 10° WSW 20:16:15 42° S 20:16:15 42° S visible
27 Sep -2.9 19:21:39 10° SW 19:24:40 33° SSE 19:26:26 19° ESE visible
27 Sep -1.8 20:57:38 10° WSW 20:59:06 24° WSW 20:59:06 24° WSW visible
28 Sep -3.7 20:05:46 10° WSW 20:09:00 54° S 20:09:12 53° SSE visible
29 Sep -3.3 19:13:56 10° WSW 19:17:07 46° SSE 19:19:14 19° E visible
29 Sep -2.0 20:50:10 10° W 20:51:54 27° WSW 20:51:54 27° WSW visible
30 Sep -3.7 19:58:14 10° W 20:01:30 59° S 20:01:54 53° SE visible
01 Oct -3.5 19:06:20 10° WSW 19:09:35 56° S 19:11:53 18° E visible
01 Oct -2.0 20:42:42 10° W 20:44:32 28° WSW 20:44:32 28° WSW visible
02 Oct -3.5 19:50:43 10° W 19:53:57 53° S 19:54:30 46° SSE visible
